GLOBALSTAR M002 [-]

Last updated on July 6, 2021, 3:36 p.m. UTC

1 25164U 98008C   21186.90913025 -.00000073  00000-0  70407-4 0  9993
2 25164  52.0005 256.3639 0000927  40.2580 319.8309 11.61479144 16472
UTC
Height (km)
Latitude
Longitude
Inclination
Orbital Period
UTC large
Height (km)
Speed (km/s)
/
Latitude / Longitude
Inclination (degrees)
Orbital Period (minutes)
Azimuth
Elevation
Range (km)
Doppler Factor
iOS Compass Heading
iOS Angle